Meath Environmental Platform

Observations for Trim Patrick St

Time AQI Temp °C Hum % Pres Pa CO μg/m³ H₂S μg/m³ NO μg/m³ NO₂ μg/m³ O₃ μg/m³ SO₂ μg/m³ PM1 μg/m³ PM2.5 μg/m³ PM10 μg/m³
Thursday 27 August 2026
11:15 3 19.8 78 38,460 0.03 0.3 0.74 12.2 54.81 0 20.86 30.73 34.91
11:14 3 19.8 78 38,460 0.04 0 0.71 13.03 49.06 0 21.72 32.85 34.91
11:13 3 19.9 77 38,460 0.04 0 0.72 9.86 56.96 0 20.86 31.5 34.33
11:12 3 19.9 78 38,460 0.18 2.01 0.76 11.67 51.53 0.16 20 30.72 34.17
11:11 3 19.9 78 38,460 0.03 0.45 0.9 12.68 50.94 0 20 29.31 29.92
11:10 3 19.9 78 38,460 0.03 0 0.98 9.41 45.77 0 21.72 30.72 32.75
11:09 3 20 78 38,460 0.04 0 1.07 9.06 54.53 0 20.86 31.45 34.94
11:08 3 20 78 38,460 0.02 0 1.26 10.11 56.43 0 21.72 32.19 36.43
11:07 3 20 78 38,460 0.05 0 1.4 10.35 57.65 0 22.57 31.47 33.56
11:06 3 20 78 38,460 0.04 0.11 1.23 11.36 56.14 0 22.57 31.39 33.39
11:05 3 20 78 38,460 0.06 0 1.08 10.45 50.26 0 22.57 30.72 32.04
11:04 3 20 78 38,460 0.03 0 1.06 11.45 52.44 0 21.72 31.45 34.94
11:03 3 20 78 38,460 0.05 0.37 0.9 14.05 55.73 0 21.72 32.85 34.91
11:02 3 20 78 38,460 0.08 0.06 0.71 11.42 41.95 0.13 21.72 32.07 35.44
11:01 3 20 78 38,460 0.14 1.84 0.88 23.13 41.92 0.67 20.86 30.72 32.04
11:00 3 20 78 38,460 0.18 1.82 1.07 17.46 39.67 1.46 20.86 29.95 31.89
10:59 3 20 78 38,460 0.1 0 0.87 13.66 34.24 2.32 20 29.96 31.22
10:58 3 20 78 38,460 0.07 0 0.87 15.95 36.35 0.6 20 28.57 30.54
10:57 3 20.1 78 38,460 0.06 0 0.94 13.93 41.16 0.03 21.72 29.27 29.84
10:56 3 20 78 38,460 0.09 0.27 0.97 14.45 54.18 0 22.57 32.83 37.7